North Adams, MA

10:37 AM EST on February 23, 2017 (GMT -0500)
Harriman And West

Weather History for KAQW - March, 2012

Change the Weather History Date:

Monday, March 26, 2012

  Actual Average Record
Temperature  
Mean Temperature 39 °F -  
Max Temperature 50 °F 44 °F 72 °F (2004)
Min Temperature 28 °F 27 °F 10 °F (2001)
Degree Days  
Heating Degree Days 26    
Moisture  
Dew Point 22 °F    
Average Humidity 53    
Maximum Humidity 77    
Minimum Humidity 26    
Precipitation  
Precipitation 0.00 in - - ()
Sea Level Pressure  
Sea Level Pressure 29.83 in    
Wind  
Wind Speed 9 mph (WNW)    
Max Wind Speed 17 mph    
Max Gust Speed 32 mph    
Visibility 10 miles    
Events      
Averages and records for this station are not official NWS values.
T = Trace of Precipitation, MM = Missing Value Source: NWS Daily Summary

Daily Weather History Graph

Daily Weather History Graph

Search for Another Location

Airport or City:

Trip Planner

Search our weather history database for the weather conditions in past years. The results will help you decide how hot, cold, wet, or windy it might be!

Date:

Astronomy

Mar. 26, 2012 Rise Set
Actual Time 6:44 AM EDT 7:12 PM EDT
Civil Twilight 6:16 AM EDT 7:40 PM EDT
Nautical Twilight 5:42 AM EDT 8:14 PM EDT
Astronomical Twilight 5:08 AM EDT 8:48 PM EDT
Moon 8:26 AM EDT (3/26) 11:27 PM EDT (3/26)
Length of Visible Light 13h 24m
Length of Day
12h 27m
Waxing Crescent, 14% of the Moon is Illuminated
Mar 26
Waxing Crescent
Mar 30
First Quarter
Apr 6
Full
Apr 13
Last Quarter
Apr 21
New

Hourly Weather History & Observations

Time (EDT) Temp. Windchill Dew Point Humidity Pressure Visibility Wind Dir Wind Speed Gust Speed Precip Events Conditions
12:52 AM 48.9 °F - 42.1 °F 77% 29.72 in 10.0 mi WNW 3.5 mph - N/A   Overcast
1:52 AM 50.0 °F - 43.0 °F 77% 29.70 in 10.0 mi Calm Calm - N/A   Overcast
2:52 AM 50.0 °F - 43.0 °F 77% 29.68 in 10.0 mi West 12.7 mph - N/A   Overcast
3:52 AM 50.0 °F - 41.0 °F 71% 29.68 in 10.0 mi WNW 4.6 mph - N/A   Overcast
4:35 AM 50.0 °F - 39.2 °F 66% 29.65 in 10.0 mi WSW 4.6 mph - N/A   Overcast
4:48 AM 50.0 °F - 39.2 °F 66% 29.65 in 10.0 mi Variable 6.9 mph - N/A   Overcast
4:52 AM 50.0 °F - 39.0 °F 66% 29.67 in 10.0 mi West 13.8 mph 20.7 mph N/A   Overcast
5:43 AM 48.2 °F - 39.2 °F 71% 29.66 in 10.0 mi West 11.5 mph 26.5 mph N/A   Overcast
5:52 AM 48.9 °F - 39.0 °F 69% 29.66 in 10.0 mi West 12.7 mph 19.6 mph N/A   Overcast
6:47 AM 48.2 °F - 37.4 °F 66% 29.68 in 10.0 mi NW 17.3 mph 32.2 mph N/A   Overcast
6:52 AM 45.0 °F 38.5 °F 37.0 °F 74% 29.71 in 10.0 mi NNW 13.8 mph 32.2 mph N/A   Overcast
7:52 AM 39.0 °F 32.3 °F 30.0 °F 70% 29.78 in 10.0 mi WNW 10.4 mph 28.8 mph N/A   Overcast
8:04 AM 39.2 °F 33.0 °F 28.4 °F 65% 29.78 in 10.0 mi WNW 9.2 mph 25.3 mph N/A   Overcast
8:29 AM 37.4 °F 29.8 °F 28.4 °F 70% 29.80 in 10.0 mi WNW 11.5 mph 25.3 mph N/A   Overcast
8:52 AM 36.0 °F 29.0 °F 28.0 °F 73% 29.83 in 10.0 mi WNW 9.2 mph 18.4 mph N/A   Overcast
9:01 AM 35.6 °F 28.0 °F 26.6 °F 70% 29.82 in 10.0 mi WNW 10.4 mph 20.7 mph N/A   Overcast
9:27 AM 35.6 °F 28.6 °F 23.0 °F 60% 29.84 in 10.0 mi NNW 9.2 mph 20.7 mph N/A   Overcast
9:52 AM 35.1 °F 28.6 °F 23.0 °F 61% 29.86 in 10.0 mi NW 8.1 mph 17.3 mph N/A   Overcast
10:31 AM 35.6 °F 29.9 °F 19.4 °F 52% 29.86 in 10.0 mi Variable 6.9 mph - N/A   Overcast
10:52 AM 35.1 °F 30.1 °F 18.0 °F 50% 29.88 in 10.0 mi Variable 5.8 mph - N/A   Overcast
11:52 AM 37.9 °F 28.9 °F 15.1 °F 39% 29.89 in 10.0 mi NNW 16.1 mph 25.3 mph N/A   Mostly Cloudy
12:52 PM 37.0 °F 31.0 °F 12.9 °F 37% 29.88 in 10.0 mi NW 8.1 mph 21.9 mph N/A   Mostly Cloudy
1:52 PM 37.9 °F 28.5 °F 10.9 °F 33% 29.88 in 10.0 mi WNW 17.3 mph 31.1 mph N/A   Scattered Clouds
2:52 PM 37.9 °F 29.6 °F 9.0 °F 30% 29.88 in 10.0 mi WNW 13.8 mph 31.1 mph N/A   Partly Cloudy
3:52 PM 39.0 °F 30.6 °F 8.1 °F 28% 29.90 in 10.0 mi WNW 15.0 mph 26.5 mph N/A   Scattered Clouds
4:52 PM 37.0 °F 28.1 °F 6.1 °F 28% 29.91 in 10.0 mi NW 15.0 mph 29.9 mph N/A   Partly Cloudy
5:52 PM 36.0 °F 28.0 °F 3.9 °F 26% 29.93 in 10.0 mi WNW 11.5 mph 27.6 mph N/A   Partly Cloudy
6:52 PM 34.0 °F 28.0 °F 1.9 °F 26% 29.97 in 10.0 mi Variable 6.9 mph 27.6 mph N/A   Clear
7:52 PM 32.0 °F 24.8 °F 1.9 °F 28% 30.01 in 10.0 mi NW 8.1 mph 23.0 mph N/A   Mostly Cloudy
8:52 PM 30.9 °F 24.3 °F 1.9 °F 29% 30.05 in 10.0 mi West 6.9 mph 21.9 mph N/A   Clear
9:52 PM 30.0 °F 20.5 °F -0.0 °F 28% 30.08 in 10.0 mi West 11.5 mph 20.7 mph N/A   Clear
10:52 PM 28.9 °F 20.4 °F -0.0 °F 29% 30.10 in 10.0 mi West 9.2 mph 19.6 mph N/A   Clear
11:52 PM 28.0 °F 19.3 °F -0.9 °F 29% 30.12 in 10.0 mi West 9.2 mph 20.7 mph N/A   Clear